Regional Weather Roundup
Issued by NWS Newport/Morehead, NC

Current Version | Previous Version | Graphics & Text | Print | Product List | Glossary On
Versions: 1 2 3 4 5 6 7 8 9 10 11 12 13 14 15 16 17 18 19 20 21 22 23 24 25 26 27 28 29 30 31 32 33 34 35 36 37 38 39 40 41 42 43 44 45 46 47 48 49 50
000 ASUS42 KMHX 211325 RWRMHX WEATHER ROUNDUP FOR EASTERN NORTH CAROLINA NATIONAL WEATHER SERVICE NEWPORT/MOREHEAD CITY NC 800 AM EST WED FEB 21 2018 NOTE: "FAIR" INDICATES FEW OR NO CLOUDS BELOW 12,000 FEET WITH NO SIGNIFICANT WEATHER AND/OR OBSTRUCTIONS TO VISIBILITY NCZ015>017-031-032-045>047-102-103-211400- NORTH COAST CITY SKY/WX TMP DP RH WIND PRES REMARKS EDENTON FOG 65 65 100 SW5 30.50R VSB 1/4 ELIZABETH CITY FOG 63 63 100 SW8 30.49R VSB 1/4 KITTY HAWK FAIR N/A N/A N/A CALM 30.48R HAZE MANTEO FAIR 60 60 100 SW7 30.49S FOG $$ NCZ045>047-081-094-103-104-211400- CENTRAL COAST CITY SKY/WX TMP DP RH WIND PRES REMARKS FRISCO CLOUDY 66 66 100 SW6 30.50S FOG $$ NCZ095-097-098-100-101-211400- SOUTHERN COAST CITY SKY/WX TMP DP RH WIND PRES REMARKS BEAUFORT PTSUNNY 67 66 97 S5 30.50R CEDAR ISLAND NOT AVBL JACKSONVILLE PTSUNNY 67 67 100 S3 30.49R PINEY ISLAND NOT AVBL WILMINGTON CLOUDY 63 63 100 CALM 30.49S FOG $$ NCZ011>013-027>030-043-044-078>080-089-090>093-098-211400- COASTAL PLAIN CITY SKY/WX TMP DP RH WIND PRES REMARKS AHOSKIE CLOUDY 64 64 100 S5 30.48S FOG CLINTON CLOUDY 62 62 100 CALM 30.50R VSB 1/4 ELIZABETHTOWN NOT AVBL GOLDSBORO FOG 63 63 100 S5 30.47S VSB 3/8 GREENVILLE CLOUDY 64 64 100 SW3 30.49S FOG HAVELOCK NOT AVBL KENANSVILLE FOG 63 63 100 CALM 30.50R VSB 1/4 KINSTON FOG 64 64 100 SW3 30.50R VSB 1 NEW BERN FAIR 66 66 100 S5 30.50R FOG RICHLANDS FAIR 64 64 100 S3 30.50R FOG ROCKY MOUNT CLOUDY 65 64 97 S6 30.48R WASHINGTON FOG 64 64 97 W3 30.50S VSB<1/4 WHITEVILLE FOG 62 61 97 CALM 30.48R VSB<1/4 $$ AMZ130-135-150-152-154-156-158-170-250-252-270-ANZ085-086-088-633-658-670-211400- MARINE OBSERVATIONS STATION/POSITION TIME TEMP WIND PRES WAVE SWELL AIR SEA DIR/SP/G HT/PER HT/PER (UTC) (F) (DEG/KT/KT) (MB) (FT/S) (FT/S) CHESAPEAKE LIGHT NOT AVBL 64 E VA BEACH 1250 53 50 200/ 8/ 10 1032.6 3/13 3/13 DUCK 1300 63 44 200/ 9/ 10 1031.9 2 E DUCK 1300 46 N/A 3/11 2/11 OREGON INLET 1300 59 57 180/ 7/ 8 1032.5 13E OREGON INLT 1248 47 N/A 4/13 3/13 HATTERAS CG 1300 66 59 200/ 3/ 6 1032.7 DIAMOND BUOY 1300 72 180/ 12/ 16 1033.2 CAPE LOOKOUT 1300 190/ 4/ 4 1032.8 BEAUFORT LAB 1300 65 58 180/ 3/ 4 1032.8 30 SE NEW RVR IN 1208 70 69 190/ 8/ 10 1032.4 30 SE NEW RVR IN 1300 69 N/A 4/ 6 2/11 27 SE WRIGHTSVLE 1208 69 70 170/ 8/ 14 1032.2 5 SE WRIGHTSVLE 1208 60 55 90/ 2/ 6 1031.7 225 S CAPE HAT 1250 72 74 120/ 14/ 16 1033.3 5/ 6 3/ 7 41 SE CHARLESTON 1300 70 160/ 4/ 6 1031.6 $$

USA.gov is the U.S. government's official web portal to all federal, state and local government web resources and services.